Location: Caltech
(34.1382°N, 118.1253°W)
Time: 07:32:50
(UTC-07:00)

AO-Echo - Visible Passes

Search period start: 30 May 2016 00:00
Search period end: 09 June 2016 00:00
Orbit: 693 x 811 km, 98.3° (Epoch: 29 May)

Date Brightness Start Highest point End Pass type
(mag) Time Alt. Az. Time Alt. Az. Time Alt. Az.
30 May ? 02:13:14 10° NNE 02:17:44 59° ENE 02:17:44 59° ENE visible
30 May ? 03:54:08 10° NW 03:56:35 13° WNW 03:57:40 13° WNW visible
31 May ? 01:33:34 10° NE 01:36:52 24° ENE 01:36:52 24° ENE visible
31 May ? 03:11:57 10° N 03:16:35 33° WNW 03:16:48 32° WNW visible
01 Jun ? 02:31:05 10° N 02:35:56 75° NNW 02:35:56 75° NNW visible
02 Jun ? 01:50:59 10° NNE 01:55:04 37° ENE 01:55:04 37° ENE visible
02 Jun ? 03:30:21 10° NNW 03:34:20 22° WNW 03:35:00 22° W visible
03 Jun ? 01:12:11 10° ENE 01:14:12 15° E 01:14:12 15° E visible
03 Jun ? 02:49:04 10° N 02:54:08 54° WNW 02:54:08 54° WNW visible
04 Jun ? 02:08:37 10° NNE 02:13:16 56° ENE 02:13:16 56° ENE visible
04 Jun ? 03:49:06 10° NNW 03:52:02 15° WNW 03:53:12 14° W visible
05 Jun ? 01:29:05 10° NE 01:32:23 23° E 01:32:23 23° E visible
05 Jun ? 03:07:13 10° N 03:12:00 36° WNW 03:12:19 36° W visible
06 Jun ? 02:26:26 10° NNE 02:31:27 80° NNE 02:31:27 80° NNE visible
07 Jun ? 01:46:26 10° NNE 01:50:34 34° E 01:50:34 34° E visible
07 Jun ? 03:25:33 10° NNW 03:29:46 25° WNW 03:30:30 24° W visible
08 Jun ? 01:07:55 10° ENE 01:09:41 13° E 01:09:41 13° E visible
08 Jun ? 02:44:23 10° N 02:49:37 60° WNW 02:49:37 60° WNW visible
